Home > Weather > Guildford > Past weeks

Flag for United Kingdom Past Weather in Guildford, England, United Kingdom — Yesterday and Last 2 Weeks

Now
66 °F

Scattered clouds.


Feels Like: 66 °F
Forecast: 57 / 67 °F
Wind: 17 mph from Southwest

Location: Farnborough Airport

Current Time: Jun 30, 2016 at 5:01:44 PM

Latest Report: Jun 30, 2016 at 4:20 PM


Visibility: N/A

Pressure: 29.83 "Hg

Humidity: 73%

Dew Point: 57 °F

Location of GuildfordLocation

Past Weather in Guildford — Graph

°F

Guildford Temperature Yesterday

Maximum temperature yesterday: 59 °F (at 8:50 AM)
Minimum temperature yesterday: 55 °F (at 6:50 AM)
Average temperature yesterday: 58 °F

High & Low Weather Summary for the Past Weeks

 TemperatureHumidityPressure
High70 °F (Jun 20, 3:20 PM)100% (Jun 16, 7:50 AM)30.24 "Hg (Jun 16, 7:50 AM)
Low54 °F (Jun 28, 6:50 AM)46% (Jun 27, 4:50 PM)29.45 "Hg (Jun 15, 3:20 PM)
Average62 °F78%29.94 "Hg
* Reported Jun 15 3:20 PM — Jun 30 3:50 PM, Guildford, Weather by CustomWeather, © 2016

Note: Actual official high and low records may vary slightly from our data, if they occured in-between our weather recording intervals... More about our weather records

Advertising

Guildford Weather History for the Previous 24 Hours

Scroll right to see more
 ConditionsComfort  
Time TempWeatherWind HumidityBarometerVisibility
3:50 PM
Thu, Jun 30
64 °FScattered clouds.17 mph73%29.83 "HgN/A
3:20 PM64 °FScattered clouds.14 mph78%29.83 "HgN/A
2:50 PM64 °FScattered clouds.14 mph73%29.83 "HgN/A
2:20 PM64 °FScattered clouds.14 mph78%29.83 "HgN/A
1:50 PM64 °FScattered clouds.10 mph83%29.83 "HgN/A
1:20 PM63 °FSprinkles. Scattered clouds.10 mph77%29.83 "HgN/A
12:50 PM63 °FScattered clouds.10 mph77%29.83 "HgN/A
12:20 PM63 °FScattered clouds.12 mph77%29.83 "HgN/A
11:50 AM64 °FScattered clouds.13 mph73%29.83 "HgN/A
11:20 AM63 °FPartly sunny.13 mph73%29.83 "HgN/A
10:50 AM63 °FScattered clouds.10 mph77%29.83 "HgN/A
10:20 AM61 °FBroken clouds.10 mph77%29.83 "HgN/A
9:50 AM61 °FBroken clouds.8 mph83%29.80 "HgN/A
9:20 AM61 °FPartly sunny.7 mph88%29.80 "HgN/A
8:50 AM59 °FScattered clouds.7 mph82%29.80 "HgN/A
8:20 AM59 °FScattered clouds.6 mph88%29.80 "HgN/A
7:50 AM57 °FScattered clouds.6 mph88%29.80 "HgN/A
7:20 AM59 °FScattered clouds.5 mph88%29.80 "HgN/A
6:50 AM55 °FScattered clouds.3 mph100%29.80 "HgN/A
8:50 PM
Wed, Jun 29
57 °FPassing clouds.15 mph88%29.74 "HgN/A
8:20 PM57 °FScattered clouds.16 mph88%29.74 "HgN/A
7:50 PM57 °FScattered clouds.18 mph88%29.74 "HgN/A
7:20 PM57 °FScattered showers. Partly sunny.17 mph88%29.74 "HgN/A
6:50 PM59 °FScattered showers. Partly sunny.16 mph88%29.74 "HgN/A
6:20 PM59 °FScattered showers. Partly sunny.15 mph88%29.74 "HgN/A
5:50 PM57 °FDrizzle. Partly sunny.14 mph94%29.74 "HgN/A
5:20 PM57 °FScattered showers. Partly sunny.15 mph94%29.74 "HgN/A
Weather by CustomWeather, © 2016

See weather overviewHow to use our weather pages